Location: Greenwich
(51.4790°N, 0.0090°E)
Time: 23:35:28
(UTC+01:00)

Transit 4A - Pass Details

Date: 01 May 2024
Orbit: 871 x 971 km, 66.8° (Epoch: 17 May)

Event Time Altitude Azimuth Distance (km) Brightness Sun altitude
Rises 21:23:48 0° 311° (NW) 3,471 13.4 -8.7°
Reaches altitude 10° 21:27:16 10° 291° (WNW) 2,533 11.5 -9.1°
Maximum altitude 21:30:35 16° 256° (WSW) 2,156 10.3 -9.5°
Drops below altitude 10° 21:33:54 10° 221° (SW) 2,544 10.2 -9.9°
Sets 21:37:25 0° 200° (SSW) 3,495 10.7 -10.3°
